< < Back
Terminal Aerodrome Forecast


Current Version              Previous Versions:   1  2  3  4  5  6  7  8  9  

Terminal Aerodrome Forecast

475
FTUS42 KJAX 232300
TAFJAX
TAF
KJAX 232331Z 2400/2424 VRB03KT P6SM FEW060
     FM241500 11007KT P6SM SCT050
     FM241900 12010KT P6SM BKN050=

Latest METAR

462
SAUS80 KWBC 240200
MTRJAX
METAR KJAX 240156Z 16005KT 10SM SCT060 22/18 A2991 RMK AO2 SLP129
T02170183


USA.gov is the U.S. government's official web portal to all federal, state and local government web resources and services.